Regional Weather Roundup
Issued by NWS Upton, NY

Current Version | Previous Version | Graphics & Text | Print | Product List | Glossary Off
Versions: 1 2 3 4 5 6 7 8 9 10 11 12 13 14 15 16 17 18 19 20 21 22 23 24 25 26 27 28 29 30 31 32 33 34 35 36 37 38 39 40 41 42 43 44 45 46 47 48 49 50

000
ASUS41 KOKX 281009
RWROKX

REGIONAL WEATHER ROUNDUP
NATIONAL WEATHER SERVICE NEW YORK NY
600 AM EDT SUN MAY 28 2017

NOTE: "FAIR" INDICATES FEW OR NO CLOUDS BELOW 12,000 FEET WITH NO
SIGNIFICANT WEATHER AND/OR OBSTRUCTIONS TO VISIBILITY.

NYZ071-072-176-178-NJZ106-104-281100-
NEW YORK CITY METRO AREA

CITY           SKY/WX    TMP DP  RH WIND       PRES   REMARKS
Central Park   MOCLDY    58  57  97 CALM      29.93S FOG
Wall St Helipt SUNNY     59  57  94 NE8       29.91S
Bronx Bot Gard   N/A     57  55  94 E2        29.91S
LaGuardia APRT CLOUDY    59  56  89 E3        29.90S
Kennedy INTL   FOG       59  59 100 E5        29.92S VSB 1/2
Breezy Point     N/A     57 N/A N/A E5          N/A
Newark/Liberty PTCLDY    59  57  93 NE3       29.90S
Teterboro      CLEAR     57  56  96 CALM      29.90S
$$

NYZ177-179-078>081-281100-
LONG ISLAND NEW YORK

CITY           SKY/WX    TMP DP  RH WIND       PRES   REMARKS
Jones Beach      N/A     57 N/A N/A SE3         N/A
Matinecock PT  NOT AVBL
Farmingdale    MOCLDY    57  55  93 E3        29.92R
MacArthur/ISP  MOCLDY    58  57  97 S5        29.92R
Shirley        CLOUDY    57  57 100 SE5       29.94R
Mt Sinai Harb    N/A    N/A N/A N/A MISG        N/A
Westhampton    CLOUDY    55  53  93 SE3       29.95S
East Hampton   CLOUDY    55  52  90 CALM      29.93R
Montauk          N/A     57  52  83 VRB3      29.95R
$$

NYZ052-065-067-281100-
HUDSON VALLEY

CITY           SKY/WX    TMP DP  RH WIND       PRES   REMARKS
White Plains   CLOUDY    57  55  93 E3        29.91S FOG
Larchmont Harb   N/A     57 N/A N/A NE3         N/A
Croton O-T Hud   N/A     59 N/A N/A MISG        N/A
Newburgh       NOT AVBL
Montgomery     CLOUDY    58  57  97 CALM      29.90R
Poughkeepsie   CLOUDY    60  56  86 CALM      29.90S
Albany         CLOUDY    60  55  83 CALM      29.91R
$$

NJZ001-105-106-008-010-013-015-019>022-104-281100-
NEW JERSEY

CITY           SKY/WX    TMP DP  RH WIND       PRES   REMARKS
Newark/Liberty PTCLDY    59  57  93 NE3       29.90S
Teterboro      CLEAR     57  56  96 CALM      29.90S
Caldwell       CLEAR     56  54  93 CALM      29.91S
Somerville     CLEAR     52  51  97 CALM      29.89R
Linden           N/A     58  55  91 CALM      29.90R FOG
Perth Amboy      N/A     57 N/A N/A E5          N/A
Sussex         CLOUDY    58  58 100 CALM      29.92R
Andover          N/A     57  56  96 CALM      29.91R
Trenton        CLEAR     54  54 100 CALM      29.89R FOG
Millville      CLOUDY    62  62 100 CALM      29.89R FOG
Atlantic City  NOT AVBL
Wrightstown    CLEAR     55  54  96 CALM      29.87S
Toms River     PTCLDY    53  52  96 CALM      29.90S
Belmar         CLEAR     55  54  96 E3        29.91S
$$

PAZ047>061-062-071-281100-
EASTERN PENNSYLVANIA

CITY           SKY/WX    TMP DP  RH WIND       PRES   REMARKS
Philadelphia   MOCLDY    62  60  93 CALM      29.89S
Allentown      CLEAR     52  49  89 NW5       29.91R
Scranton       CLOUDY    60  56  86 SE3       29.91R
$$

CTZ002-004>006-009-010-012-RIZ004-006-007-MAZ004-011-015-281100-
SOUTHERN NEW ENGLAND
 IN CT

CITY           SKY/WX    TMP DP  RH WIND       PRES   REMARKS
Bradley INTL   CLOUDY    57  54  89 S5        29.92R
Hartford       CLOUDY    58  54  86 SE3       29.92R
Danbury        CLOUDY    56  55  97 CALM      29.94R
Wtrbury/Oxford CLOUDY    55  50  82 CALM      29.94S
Bridgeport     CLOUDY    60  55  83 CALM      29.92R
Meriden        CLOUDY    56  54  93 CALM      29.93R
New Haven      CLOUDY    57  54  89 SE3       29.93R
Chester        CLOUDY    55  54  94 CALM      29.93R
Groton         CLOUDY    56  53  90 CALM      29.94R
Wilimantic     CLOUDY    57  54  89 SW3       29.94R

 IN RI

CITY           SKY/WX    TMP DP  RH WIND       PRES   REMARKS
Providence     CLOUDY    56  55  97 SW6       29.93F
Block Island   CLOUDY    55  52  89 S3        29.96R
Westerly       CLOUDY    57  53  86 S5        29.95R
 IN MA

CITY           SKY/WX    TMP DP  RH WIND       PRES   REMARKS
Boston         PTCLDY    55  52  89 CALM      29.92S
Worcester      CLOUDY    55  52  89 SW8       29.92R
Westfield      NOT AVBL
Provincetown   CLEAR     52  49  89 SE3       29.95R
Nantucket      PTCLDY    50  48  93 S3        29.93F
$$

ANZ330-335-338-340-345-350-353-355-281100-
COASTAL MARINE OBSERVATIONS


STATION/POSITION TIME  SKY/WX   TEMP    WIND        PRES    VSBY  WAVE
                                AIR SEA DIR/SP/G                  HT/PER
                 (UTC)          (F)     (DEG/KT/KT) (MB)    (MI)  (FT/S)
NY HARB ENTRANCE 0950            58 58  160/  8/  8 1012.6          2/ 8
20 S FIRE ISLAND 0950            57 57  150/  8/ 10 1012.6          2/ 8
GREAT SOUTH BAY  NOT AVBL
23 SSW MONTAUK P 0950            56 55              1014.1          2/ 8
15 E BARNEGAT LI 0930               59                N/A           2/ 8
HUDSON CANYON    0850            56 56  140/  6/  8 1012.5          2/ 8
KINGS POINT      0936            58 59  160/  2/  5 1012.5
EXECUTION ROCKS  0945            59                   N/A
CENTRAL LI SOUND 0945            56      70/  2/  4   N/A           0
EASTERN LI SOUND NOT AVBL
ROBBINS REEF     0936            59     100/  7/  8 1012.9
$$


>>>>>>>>>>>>>>>>>>>>>>>>>>>> KEY <<<<<<<<<<<<<<<<<<<<<<<<<<<
>                                                          <
>     SKY/WX - Sky Condition/Present Weather               <
>     TMP    - Temperature in Fahrenheit                   <
>     DP     - Dew Point in Fahrenheit                     <
>     RH     - Relative Humidity in Percent                <
>     WIND   - Direction (from) and Speed in MPH           <
>     PRES   - Mean Sea Level Pressure (inches of Hg)      <
>     WCI    - Wind Chill Index                            <
>     VSB    - VISIBILITY IN MILES                         <
>     HX     - HEAT INDEX                                  <
>     TC     - TEMPERATURE IN CELSIUS                      <
>     VRB    - VARIABLE WIND DIRECTION                     <
>                                                          <
>>>>>>>>>>>>>>>>>>>>>>>>>>>> KEY <<<<<<<<<<<<<<<<<<<<<<<<<<<



USA.gov is the U.S. government's official web portal to all federal, state and local government web resources and services.